Orbital Elements at Epoch 2459000.5 (2020-May-31.0) TDB
Reference: JPL 13 (heliocentric ecliptic J2000)
Element | Value | Uncertainty (1-sigma) | Units |
e | .197597160091656 | 5.488e-08 | |
a | 2.419549802227301 | 1.4807e-08 | au |
q | 1.941453632606858 | 1.3881e-07 | au |
i | 2.819493721954549 | 4.9916e-06 | deg |
node | 105.2911516044029 | 0.00011254 | deg |
peri | 261.9579923803107 | 0.00011321 | deg |
M | 259.3090631034439 | 1.3433e-05 | deg |
tp | 2459384.992751235629 (2021-Jun-19.49275124) | 5.2965e-05 | TDB |
period | 1374.675762397844 3.76 | 1.2619e-05 3.455e-08 | d yr |
n | .2618799355071576 | 2.404e-09 | deg/d |
Q | 2.897645971847743 | 1.7733e-08 | au |
|
| | Orbit Determination Parameters
Additional Information
|